TimePDT,TemperatureF,Dew PointF,Humidity,Sea Level PressureIn,VisibilityMPH,Wind Direction,Wind SpeedMPH,Gust SpeedMPH,PrecipitationIn,Events,Conditions,WindDirDegrees,DateUTC
12:53 AM,53.1,46.0,77,30.10,10.0,Calm,Calm,-,N/A,,Clear,0,2012-03-14 07:53:00
1:53 AM,53.1,46.9,80,30.10,10.0,Calm,Calm,-,N/A,,Clear,0,2012-03-14 08:53:00
2:53 AM,52.0,46.0,80,30.10,10.0,South,3.5,-,N/A,,Clear,170,2012-03-14 09:53:00
3:53 AM,52.0,45.0,77,30.09,10.0,Calm,Calm,-,N/A,,Clear,0,2012-03-14 10:53:00
4:53 AM,51.1,45.0,80,30.09,10.0,Calm,Calm,-,N/A,,Clear,0,2012-03-14 11:53:00
5:53 AM,51.1,44.1,77,30.10,10.0,Calm,Calm,-,N/A,,Scattered Clouds,0,2012-03-14 12:53:00
5:56 AM,51.8,44.6,76,30.10,10.0,Calm,Calm,-,N/A,,Mostly Cloudy,0,2012-03-14 12:56:00
6:30 AM,51.8,44.6,76,30.11,9.0,Calm,Calm,-,N/A,,Scattered Clouds,0,2012-03-14 13:30:00
6:53 AM,50.0,44.1,80,30.12,10.0,NNE,4.6,-,N/A,,Scattered Clouds,30,2012-03-14 13:53:00
7:53 AM,52.0,45.0,77,30.13,9.0,Calm,Calm,-,N/A,,Scattered Clouds,0,2012-03-14 14:53:00
8:34 AM,53.6,46.4,77,30.14,8.0,Variable,3.5,-,N/A,,Mostly Cloudy,0,2012-03-14 15:34:00
8:53 AM,55.0,46.0,72,30.14,8.0,Variable,3.5,-,N/A,,Mostly Cloudy,0,2012-03-14 15:53:00
9:18 AM,55.4,46.4,72,30.14,8.0,Calm,Calm,-,N/A,,Partly Cloudy,0,2012-03-14 16:18:00
9:53 AM,57.9,46.9,67,30.15,8.0,Calm,Calm,-,N/A,,Partly Cloudy,0,2012-03-14 16:53:00
10:53 AM,61.0,46.9,60,30.14,9.0,Calm,Calm,-,N/A,,Partly Cloudy,0,2012-03-14 17:53:00
11:53 AM,63.0,46.9,56,30.13,10.0,West,6.9,-,N/A,,Partly Cloudy,260,2012-03-14 18:53:00
12:53 PM,62.1,46.9,58,30.13,10.0,WSW,9.2,-,N/A,,Partly Cloudy,240,2012-03-14 19:53:00
1:53 PM,64.0,46.9,54,30.11,10.0,WSW,8.1,-,N/A,,Partly Cloudy,240,2012-03-14 20:53:00
2:53 PM,64.0,46.9,54,30.11,10.0,WSW,9.2,16.1,N/A,,Scattered Clouds,240,2012-03-14 21:53:00
3:53 PM,62.1,46.9,58,30.11,10.0,SW,10.4,-,N/A,,Scattered Clouds,230,2012-03-14 22:53:00
4:53 PM,63.0,48.9,60,30.11,10.0,West,8.1,-,N/A,,Scattered Clouds,260,2012-03-14 23:53:00
5:53 PM,60.1,50.0,69,30.11,10.0,West,8.1,-,N/A,,Scattered Clouds,270,2012-03-15 00:53:00
6:26 PM,57.2,50.0,77,30.11,10.0,West,5.8,-,N/A,,Scattered Clouds,280,2012-03-15 01:26:00
6:53 PM,57.0,50.0,77,30.12,10.0,West,8.1,-,N/A,,Scattered Clouds,260,2012-03-15 01:53:00
7:53 PM,55.9,50.0,80,30.14,10.0,West,4.6,-,N/A,,Partly Cloudy,270,2012-03-15 02:53:00
8:53 PM,55.9,51.1,84,30.16,8.0,SW,3.5,-,N/A,,Scattered Clouds,230,2012-03-15 03:53:00
9:53 PM,55.9,51.1,84,30.17,7.0,WNW,4.6,-,N/A,,Mostly Cloudy,290,2012-03-15 04:53:00
10:32 PM,55.4,51.8,88,30.18,8.0,West,4.6,-,N/A,,Overcast,270,2012-03-15 05:32:00
10:43 PM,55.4,51.8,88,30.18,8.0,West,4.6,-,N/A,,Overcast,280,2012-03-15 05:43:00
10:53 PM,55.0,51.1,86,30.17,8.0,Calm,Calm,-,N/A,,Overcast,0,2012-03-15 05:53:00
11:24 PM,55.4,50.0,82,30.17,10.0,Calm,Calm,-,N/A,,Partly Cloudy,0,2012-03-15 06:24:00
11:41 PM,55.4,50.0,82,30.17,10.0,Calm,Calm,-,N/A,,Mostly Cloudy,0,2012-03-15 06:41:00
11:49 PM,55.4,50.0,82,30.18,10.0,Calm,Calm,-,N/A,,Mostly Cloudy,0,2012-03-15 06:49:00
11:53 PM,55.0,50.0,83,30.18,10.0,Calm,Calm,-,N/A,,Mostly Cloudy,0,2012-03-15 06:53:00